This is the latest recevied weather packets stored in our database for station/object W0CHP-13. If no packets are shown the sender has not sent any weather packets the latest 10 day(s).
| Time | Temp. | Humidity | Pressure | Rain* | Wind** | Luminosity | Snow |
|---|---|---|---|---|---|---|---|
| 1788360017 | 22.22° C | 84% | 1012 hPa | 0 mm | - | 273 W/m² | - |
| 1788359418 | 21.67° C | 86% | 1012 hPa | 0 mm | - | 355 W/m² | - |
| 1788358817 | 21.67° C | 87% | 1012.3 hPa | 0 mm | - | 230 W/m² | - |
| 1788358216 | 21.11° C | 91% | 1012.3 hPa | 0 mm | - | 191 W/m² | - |
| 1788357619 | 21.11° C | 92% | 1012.3 hPa | 0 mm | - | 129 W/m² | - |
| 1788357017 | 20.56° C | 94% | 1012.7 hPa | 0 mm | - | 230 W/m² | - |
| 1788356415 | 20° C | 94% | 1013 hPa | 0 mm | - | 184 W/m² | - |
| 1788355818 | 20° C | 95% | 1013 hPa | 0 mm | - | 67 W/m² | - |
| 1788355216 | 20° C | 95% | 1013 hPa | 0 mm | - | 80 W/m² | - |
| 1788354632 | 19.44° C | 97% | 1013.4 hPa | 0 mm | - | 46 W/m² | - |
| 1788354017 | 19.44° C | 97% | 1013 hPa | 0 mm | - | 49 W/m² | - |
| 1788353415 | 19.44° C | 96% | 1013.3 hPa | 0 mm | - | 23 W/m² | - |
| 1788352817 | 19.44° C | 97% | 1012.7 hPa | 0 mm | - | 27 W/m² | - |
| 1788352215 | 19.44° C | 96% | 1012.3 hPa | 0 mm | - | 18 W/m² | - |
| 1788351618 | 18.89° C | 96% | 1012 hPa | 0 mm | - | 18 W/m² | - |
| 1788351016 | 18.89° C | 95% | 1012 hPa | 0 mm | - | 17 W/m² | - |
| 1788350415 | 19.44° C | 95% | 1011.9 hPa | 0 mm | - | 9 W/m² | - |
| 1788349818 | 19.44° C | 96% | 1011.6 hPa | 0 mm | - | 4 W/m² | - |
| 1788349216 | 19.44° C | 96% | 1012 hPa | 0 mm | - | 2 W/m² | - |
| 1788348615 | 19.44° C | 97% | 1012.7 hPa | 0 mm | - | 0 W/m² | - |
| 1788348017 | 19.44° C | 97% | 1013.7 hPa | 0 mm | - | 0 W/m² | - |
| 1788347415 | 19.44° C | 97% | 1013.4 hPa | 0 mm | - | 0 W/m² | - |
| 1788346816 | 19.44° C | 95% | 1013.3 hPa | 0 mm | - | 0 W/m² | - |
| 1788346218 | 19.44° C | 95% | 1013.3 hPa | 0 mm | - | 0 W/m² | - |
| 1788345617 | 19.44° C | 96% | 1013.1 hPa | 0 mm | - | 0 W/m² | - |
* Rain latest 24 hours (hover to see other rain measurements)
** Current wind speed in m/s (hover to see current wind gust speed)